Simultaneous Nadir Overpasses (SNOs) Predictions

Prediction of SNOs between GOES-16 and METOP-C Satellite Orbit:

Table of predicted SNOs for the next 14.0 days since TLE Epoch: 8/6/2021
Index Date Time (GOES-16) GOES-16 Lat,Lon METOP-C Lat,Lon Distance(km) Time Diff (sec)
1 08/07/2021 14:45:40 0.01, -75.24 0.64, -78.18 333.71 80
2 08/08/2021 14:22:20 -0.00, -75.25 -0.45, -73.17 235.93 80
3 08/10/2021 02:43:59 -0.01, -75.24 -0.55, -77.77 288.55 80
4 08/11/2021 02:20:39 0.00, -75.25 0.53, -72.77 281.39 80
5 08/12/2021 14:42:10 0.01, -75.29 0.49, -77.33 233.54 80
6 08/13/2021 14:18:50 -0.00, -75.30 -0.66, -72.35 336.80 80
7 08/15/2021 02:40:29 -0.02, -75.30 -0.40, -76.93 186.76 80
8 08/16/2021 02:17:09 -0.01, -75.31 0.74, -71.94 383.60 80
9 08/17/2021 14:38:41 0.03, -75.35 0.26, -76.51 130.81 80
10 08/18/2021 14:15:20 0.01, -75.37 -0.82, -71.51 439.77 80
11 08/20/2021 02:36:59 -0.03, -75.37 -0.19, -76.10 83.24 80
